| time (UTC) | temp C | wind direction | speed KPH | gust KPH | rain 1hr cm | rain 24hr cm | rain mn cm | humidity % | barometer mb |
| 20260901010158 | 26 | 313 | 4.8 | 12.9 | 0.00 | 0.00 | 0.00 | 71 | 1023.1 |
| 20260901005657 | 26 | 313 | 1.6 | 12.9 | 0.00 | 0.00 | 0.00 | 71 | 1023.1 |
| 20260901005158 | 26 | 313 | 3.2 | 12.9 | 0.00 | 0.00 | 0.00 | 71 | 1023.0 |
| 20260901004659 | 26 | 313 | 1.6 | 6.4 | 0.00 | 0.00 | 0.00 | 71 | 1023.0 |
| 20260901004159 | 26 | 0 | 0.0 | 6.4 | 0.00 | 0.00 | 0.00 | 71 | 1023.0 |
| 20260901003339 | 26 | 313 | 1.6 | 9.7 | 0.00 | 0.00 | 0.00 | 73 | 1022.9 |
| 20260901002839 | 25 | 313 | 1.6 | 9.7 | 0.00 | 0.00 | 0.00 | 74 | 1022.9 |
| 20260901002338 | 25 | 313 | 3.2 | 9.7 | 0.00 | 0.00 | 0.00 | 76 | 1022.9 |
| 20260901001838 | 25 | 313 | 3.2 | 12.9 | 0.00 | 0.00 | 0.00 | 78 | 1022.9 |
| 20260901001338 | 25 | 313 | 4.8 | 12.9 | 0.00 | 0.00 | 0.00 | 78 | 1022.8 |
| 20260901000840 | 26 | 313 | 4.8 | 9.7 | 0.00 | 0.00 | 0.00 | 78 | 1022.8 |
| 20260901000339 | 26 | 313 | 3.2 | 8.0 | 0.00 | 0.00 | 0.00 | 79 | 1022.8 |
| 20260831235838 | 26 | 313 | 1.6 | 8.0 | 0.00 | 0.00 | 0.00 | 77 | 1022.7 |
| 20260831235340 | 26 | 0 | 0.0 | 4.8 | 0.00 | 0.00 | 0.00 | 75 | 1022.7 |
| 20260831234840 | 26 | 313 | 1.6 | 8.0 | 0.00 | 0.00 | 0.00 | 74 | 1022.7 |
| 20260831234338 | 26 | 313 | 1.6 | 8.0 | 0.00 | 0.00 | 0.00 | 76 | 1022.7 |
| 20260831233838 | 26 | 0 | 0.0 | 3.2 | 0.00 | 0.00 | 0.00 | 74 | 1022.7 |
| 20260831233338 | 27 | 0 | 0.0 | 0.0 | 0.00 | 0.00 | 0.00 | 72 | 1022.7 |
| 20260831232838 | 27 | 0 | 0.0 | 0.0 | 0.00 | 0.00 | 0.00 | 72 | 1022.7 |
| 20260831232338 | 27 | 0 | 0.0 | 0.0 | 0.00 | 0.00 | 0.00 | 71 | 1022.7 |
| 20260831231838 | 27 | 0 | 0.0 | 0.0 | 0.00 | 0.00 | 0.00 | 72 | 1022.8 |
| 20260831231339 | 27 | 0 | 0.0 | 0.0 | 0.00 | 0.00 | 0.00 | 70 | 1022.9 |
| 20260831230838 | 27 | 0 | 0.0 | 0.0 | 0.00 | 0.00 | 0.00 | 71 | 1022.9 |
| 20260831230338 | 27 | 0 | 0.0 | 0.0 | 0.00 | 0.00 | 0.00 | 70 | 1023.0 |
| 20260831225841 | 27 | 0 | 0.0 | 0.0 | 0.00 | 0.00 | 0.00 | 70 | 1022.9 |
| 20260831225338 | 28 | 0 | 0.0 | 1.6 | 0.00 | 0.00 | 0.00 | 69 | 1023.0 |
| 20260831224838 | 28 | 0 | 0.0 | 1.6 | 0.00 | 0.00 | 0.00 | 67 | 1023.0 |
| 20260831224338 | 28 | 0 | 0.0 | 0.0 | 0.00 | 0.00 | 0.00 | 67 | 1022.9 |
| 20260831223838 | 28 | 0 | 0.0 | 0.0 | 0.00 | 0.00 | 0.00 | 67 | 1023.0 |
| 20260831223338 | 28 | 0 | 0.0 | 0.0 | 0.00 | 0.00 | 0.00 | 65 | 1023.0 |
| 20260831222838 | 28 | 0 | 0.0 | 0.0 | 0.00 | 0.00 | 0.00 | 64 | 1023.0 |
| 20260831222338 | 28 | 0 | 0.0 | 0.0 | 0.00 | 0.00 | 0.00 | 64 | 1023.0 |
| 20260831221838 | 28 | 0 | 0.0 | 0.0 | 0.00 | 0.00 | 0.00 | 64 | 1023.0 |
| 20260831221338 | 28 | 0 | 0.0 | 0.0 | 0.00 | 0.00 | 0.00 | 64 | 1022.0 |
| 20260831220838 | 28 | 0 | 0.0 | 1.6 | 0.00 | 0.00 | 0.00 | 65 | 1022.1 |
| 20260831220338 | 28 | 0 | 0.0 | 3.2 | 0.00 | 0.00 | 0.00 | 65 | 1022.1 |
| 20260831215838 | 28 | 0 | 0.0 | 3.2 | 0.00 | 0.00 | 0.00 | 66 | 1022.1 |
| 20260831215338 | 28 | 0 | 0.0 | 3.2 | 0.00 | 0.00 | 0.00 | 64 | 1022.1 |
| 20260831214838 | 29 | 0 | 0.0 | 4.8 | 0.00 | 0.00 | 0.00 | 61 | 1022.1 |
| 20260831214338 | 29 | 0 | 0.0 | 4.8 | 0.00 | 0.00 | 0.00 | 64 | 1022.1 |
| 20260831213839 | 29 | 0 | 0.0 | 4.8 | 0.00 | 0.00 | 0.00 | 63 | 1022.2 |
| 20260831213341 | 29 | 0 | 0.0 | 1.6 | 0.00 | 0.00 | 0.00 | 61 | 1022.1 |
| 20260831212838 | 29 | 0 | 0.0 | 0.0 | 0.00 | 0.00 | 0.00 | 62 | 1022.2 |
| 20260831212340 | 29 | 0 | 0.0 | 0.0 | 0.00 | 0.00 | 0.00 | 60 | 1022.3 |
| 20260831211838 | 29 | 0 | 0.0 | 1.6 | 0.00 | 0.00 | 0.00 | 63 | 1022.3 |
| 20260831211338 | 29 | 0 | 0.0 | 4.8 | 0.00 | 0.00 | 0.00 | 63 | 1022.3 |
| 20260831210838 | 29 | 0 | 0.0 | 4.8 | 0.00 | 0.00 | 0.00 | 62 | 1022.3 |
| 20260831210338 | 30 | 313 | 1.6 | 4.8 | 0.00 | 0.00 | 0.00 | 61 | 1022.3 |
| 20260831205838 | 30 | 0 | 0.0 | 4.8 | 0.00 | 0.00 | 0.00 | 60 | 1022.3 |
| 20260831205340 | 31 | 0 | 0.0 | 1.6 | 0.00 | 0.00 | 0.00 | 56 | 1022.3 |
| 20260831204838 | 31 | 0 | 0.0 | 1.6 | 0.00 | 0.00 | 0.00 | 56 | 1022.4 |
| 20260831204338 | 31 | 0 | 0.0 | 3.2 | 0.00 | 0.00 | 0.00 | 55 | 1022.5 |
| 20260831203838 | 31 | 0 | 0.0 | 3.2 | 0.00 | 0.00 | 0.00 | 56 | 1022.5 |
| 20260831203338 | 31 | 0 | 0.0 | 3.2 | 0.00 | 0.00 | 0.00 | 55 | 1022.4 |
| 20260831202838 | 31 | 0 | 0.0 | 3.2 | 0.00 | 0.00 | 0.00 | 54 | 1022.4 |
| 20260831202338 | 30 | 0 | 0.0 | 3.2 | 0.00 | 0.00 | 0.00 | 55 | 1022.5 |
| 20260831201839 | 30 | 0 | 0.0 | 3.2 | 0.00 | 0.00 | 0.00 | 57 | 1022.6 |
| 20260831201338 | 30 | 0 | 0.0 | 3.2 | 0.00 | 0.00 | 0.00 | 55 | 1022.7 |
| 20260831200839 | 30 | 0 | 0.0 | 3.2 | 0.00 | 0.00 | 0.00 | 59 | 1022.7 |
| 20260831200338 | 30 | 0 | 0.0 | 4.8 | 0.00 | 0.00 | 0.00 | 59 | 1022.8 |
| 20260831195838 | 30 | 0 | 0.0 | 4.8 | 0.00 | 0.00 | 0.00 | 61 | 1022.8 |
| 20260831195026 | 30 | 0 | 0.0 | 4.8 | 0.00 | 0.00 | 0.00 | 59 | 1022.9 |
| 20260831194525 | 29 | 0 | 0.0 | 3.2 | 0.00 | 0.00 | 0.00 | 65 | 1023.0 |
| 20260831194025 | 29 | 0 | 0.0 | 3.2 | 0.00 | 0.00 | 0.00 | 62 | 1022.9 |
| 20260831193525 | 28 | 0 | 0.0 | 1.6 | 0.00 | 0.00 | 0.00 | 64 | 1022.9 |
| 20260831193026 | 28 | 0 | 0.0 | 1.6 | 0.00 | 0.00 | 0.00 | 65 | 1023.0 |
| 20260831192525 | 28 | 0 | 0.0 | 3.2 | 0.00 | 0.00 | 0.00 | 64 | 1023.0 |
| 20260831192028 | 28 | 0 | 0.0 | 3.2 | 0.00 | 0.00 | 0.00 | 63 | 1023.1 |
| 20260831191525 | 28 | 0 | 0.0 | 3.2 | 0.00 | 0.00 | 0.00 | 67 | 1023.2 |
| 20260831191025 | 27 | 0 | 0.0 | 3.2 | 0.00 | 0.00 | 0.00 | 67 | 1023.1 |
| 20260831190526 | 27 | 0 | 0.0 | 1.6 | 0.00 | 0.00 | 0.00 | 68 | 1023.1 |
| 20260831190025 | 27 | 0 | 0.0 | 1.6 | 0.00 | 0.00 | 0.00 | 69 | 1023.2 |
| 20260831185528 | 27 | 0 | 0.0 | 0.0 | 0.00 | 0.00 | 0.00 | 68 | 1023.3 |
| 20260831185025 | 27 | 0 | 0.0 | 4.8 | 0.00 | 0.00 | 0.00 | 69 | 1023.3 |
| 20260831184526 | 27 | 0 | 0.0 | 4.8 | 0.00 | 0.00 | 0.00 | 68 | 1023.4 |
| 20260831184026 | 27 | 0 | 0.0 | 3.2 | 0.00 | 0.00 | 0.00 | 71 | 1023.4 |
| 20260831183526 | 26 | 0 | 0.0 | 0.0 | 0.00 | 0.00 | 0.00 | 70 | 1023.4 |
| 20260831183025 | 26 | 0 | 0.0 | 0.0 | 0.00 | 0.00 | 0.00 | 69 | 1023.5 |
| 20260831182525 | 25 | 0 | 0.0 | 3.2 | 0.00 | 0.00 | 0.00 | 69 | 1023.6 |
| 20260831182025 | 25 | 0 | 0.0 | 12.9 | 0.00 | 0.00 | 0.00 | 67 | 1023.6 |
| 20260831181525 | 25 | 313 | 1.6 | 14.5 | 0.00 | 0.00 | 0.00 | 67 | 1023.7 |
| 20260831181025 | 24 | 313 | 4.8 | 16.1 | 0.00 | 0.00 | 0.00 | 77 | 1023.8 |
| 20260831180525 | 25 | 313 | 6.4 | 16.1 | 0.00 | 0.00 | 0.00 | 79 | 1023.7 |
| 20260831180026 | 25 | 311 | 8.0 | 17.7 | 0.00 | 0.00 | 0.00 | 75 | 1023.7 |
| 20260831175525 | 26 | 309 | 9.7 | 17.7 | 0.00 | 0.00 | 0.00 | 70 | 1023.7 |
| 20260831175026 | 28 | 295 | 6.4 | 11.3 | 0.00 | 0.00 | 0.00 | 68 | 1023.8 |
| 20260831174525 | 29 | 0 | 0.0 | 0.0 | 0.00 | 0.00 | 0.00 | 64 | 1023.9 |
| 20260831173805 | 29 | 0 | 0.0 | 6.4 | 0.00 | 0.00 | 0.00 | 63 | 1023.9 |
| 20260831173305 | 29 | 295 | 1.6 | 6.4 | 0.00 | 0.00 | 0.00 | 62 | 1023.8 |
| 20260831172805 | 29 | 295 | 3.2 | 6.4 | 0.00 | 0.00 | 0.00 | 59 | 1023.9 |
| 20260831172308 | 29 | 295 | 1.6 | 6.4 | 0.00 | 0.00 | 0.00 | 64 | 1023.8 |
| 20260831171811 | 28 | 295 | 3.2 | 6.4 | 0.00 | 0.00 | 0.00 | 63 | 1023.9 |
| 20260831171310 | 28 | 295 | 3.2 | 6.4 | 0.00 | 0.00 | 0.00 | 65 | 1023.9 |
| 20260831170805 | 28 | 0 | 0.0 | 6.4 | 0.00 | 0.00 | 0.00 | 69 | 1023.8 |
| 20260831170305 | 28 | 0 | 0.0 | 11.3 | 0.00 | 0.00 | 0.00 | 67 | 1023.8 |
| 20260831165805 | 28 | 295 | 1.6 | 11.3 | 0.00 | 0.00 | 0.00 | 66 | 1023.8 |
| 20260831165315 | 28 | 0 | 0.0 | 6.4 | 0.00 | 0.00 | 0.00 | 68 | 1023.8 |
| 20260831164805 | 28 | 0 | 0.0 | 6.4 | 0.00 | 0.00 | 0.00 | 68 | 1023.9 |
| 20260831164447 | 28 | 0 | 0.0 | 6.4 | 0.00 | 0.00 | 0.00 | 68 | 1024.0 |
| 20260831164305 | 28 | 0 | 0.0 | 6.4 | 0.00 | 0.00 | 0.00 | 68 | 1024.0 |
| 20260831163805 | 28 | 0 | 0.0 | 6.4 | 0.00 | 0.00 | 0.00 | 69 | 1024.1 |
| 20260831163305 | 28 | 0 | 0.0 | 11.3 | 0.00 | 0.00 | 0.00 | 70 | 1024.1 |
| 20260831162805 | 28 | 295 | 1.6 | 11.3 | 0.00 | 0.00 | 0.00 | 70 | 1024.2 |
| 20260831162306 | 28 | 295 | 3.2 | 11.3 | 0.00 | 0.00 | 0.00 | 69 | 1024.2 |
| 20260831161805 | 28 | 295 | 1.6 | 11.3 | 0.00 | 0.00 | 0.00 | 69 | 1024.2 |
| 20260831161305 | 28 | 0 | 0.0 | 6.4 | 0.00 | 0.00 | 0.00 | 68 | 1024.3 |
| 20260831160805 | 28 | 0 | 0.0 | 6.4 | 0.00 | 0.00 | 0.00 | 67 | 1024.2 |
| 20260831160305 | 28 | 0 | 0.0 | 1.6 | 0.00 | 0.00 | 0.00 | 71 | 1024.1 |
| 20260831155845 | 28 | 0 | 0.0 | 4.8 | 0.00 | 0.00 | 0.00 | 70 | 1024.2 |
| 20260831155805 | 28 | 0 | 0.0 | 4.8 | 0.00 | 0.00 | 0.00 | 70 | 1024.2 |
| 20260831155306 | 28 | 0 | 0.0 | 4.8 | 0.00 | 0.00 | 0.00 | 69 | 1024.3 |
| 20260831154806 | 28 | 0 | 0.0 | 0.0 | 0.00 | 0.00 | 0.00 | 68 | 1024.2 |
| 20260831154305 | 27 | 0 | 0.0 | 4.8 | 0.00 | 0.00 | 0.00 | 72 | 1024.3 |
| 20260831153805 | 27 | 0 | 0.0 | 4.8 | 0.00 | 0.00 | 0.00 | 75 | 1024.3 |
| 20260831153305 | 27 | 0 | 0.0 | 3.2 | 0.00 | 0.00 | 0.00 | 76 | 1024.3 |
| 20260831152805 | 27 | 0 | 0.0 | 6.4 | 0.00 | 0.00 | 0.00 | 75 | 1024.3 |
| 20260831152308 | 26 | 295 | 3.2 | 8.0 | 0.00 | 0.00 | 0.00 | 75 | 1024.3 |
| 20260831151805 | 26 | 295 | 1.6 | 8.0 | 0.00 | 0.00 | 0.00 | 75 | 1024.3 |
| 20260831151307 | 26 | 0 | 0.0 | 6.4 | 0.00 | 0.00 | 0.00 | 76 | 1024.3 |
| 20260831150806 | 26 | 0 | 0.0 | 6.4 | 0.00 | 0.00 | 0.00 | 75 | 1024.4 |
| 20260831150307 | 26 | 0 | 0.0 | 4.8 | 0.00 | 0.00 | 0.00 | 77 | 1024.3 |
| 20260831145807 | 26 | 0 | 0.0 | 6.4 | 0.00 | 0.00 | 0.00 | 76 | 1024.3 |
| 20260831145307 | 26 | 0 | 0.0 | 6.4 | 0.00 | 0.00 | 0.00 | 75 | 1024.3 |
| 20260831144805 | 26 | 0 | 0.0 | 6.4 | 0.00 | 0.00 | 0.00 | 75 | 1024.3 |
| 20260831144305 | 26 | 295 | 1.6 | 12.9 | 0.00 | 0.00 | 0.00 | 75 | 1024.3 |
| 20260831143805 | 26 | 0 | 0.0 | 12.9 | 0.00 | 0.00 | 0.00 | 76 | 1024.3 |
| 20260831143305 | 26 | 0 | 0.0 | 4.8 | 0.00 | 0.00 | 0.00 | 76 | 1024.3 |
| 20260831142807 | 26 | 0 | 0.0 | 3.2 | 0.00 | 0.00 | 0.00 | 76 | 1024.2 |
| 20260831142306 | 26 | 0 | 0.0 | 0.0 | 0.00 | 0.00 | 0.00 | 79 | 1024.2 |
| 20260831141804 | 25 | 0 | 0.0 | 4.8 | 0.00 | 0.00 | 0.00 | 80 | 1024.2 |
| 20260831141308 | 25 | 0 | 0.0 | 4.8 | 0.00 | 0.00 | 0.00 | 81 | 1024.2 |
| 20260831140805 | 25 | 0 | 0.0 | 6.4 | 0.00 | 0.00 | 0.00 | 81 | 1024.1 |
| 20260831140307 | 24 | 0 | 0.0 | 6.4 | 0.00 | 0.00 | 0.00 | 82 | 1024.0 |
| 20260831135807 | 25 | 0 | 0.0 | 6.4 | 0.00 | 0.00 | 0.00 | 82 | 1024.0 |
| 20260831135315 | 25 | 0 | 0.0 | 4.8 | 0.00 | 0.00 | 0.00 | 81 | 1024.1 |
| 20260831134809 | 25 | 0 | 0.0 | 4.8 | 0.00 | 0.00 | 0.00 | 81 | 1024.0 |
| 20260831134306 | 24 | 0 | 0.0 | 4.8 | 0.00 | 0.00 | 0.00 | 81 | 1024.0 |
| 20260831133806 | 24 | 0 | 0.0 | 1.6 | 0.00 | 0.00 | 0.00 | 82 | 1024.1 |
| 20260831133305 | 24 | 0 | 0.0 | 3.2 | 0.00 | 0.00 | 0.00 | 83 | 1024.1 |
| 20260831132806 | 24 | 0 | 0.0 | 3.2 | 0.00 | 0.00 | 0.00 | 82 | 1024.1 |
| 20260831132307 | 24 | 0 | 0.0 | 6.4 | 0.00 | 0.00 | 0.00 | 82 | 1024.1 |
| 20260831131805 | 24 | 0 | 0.0 | 6.4 | 0.00 | 0.00 | 0.00 | 81 | 1024.1 |
| 20260831131305 | 24 | 0 | 0.0 | 6.4 | 0.00 | 0.00 | 0.00 | 82 | 1024.1 |
| 20260831130806 | 23 | 0 | 0.0 | 4.8 | 0.00 | 0.00 | 0.00 | 83 | 1024.1 |
| 20260831130304 | 23 | 0 | 0.0 | 3.2 | 0.00 | 0.00 | 0.00 | 84 | 1024.1 |
| 20260831125804 | 23 | 0 | 0.0 | 6.4 | 0.00 | 0.00 | 0.00 | 84 | 1024.0 |
| 20260831125306 | 23 | 0 | 0.0 | 8.0 | 0.00 | 0.00 | 0.00 | 85 | 1024.1 |
| 20260831124805 | 23 | 0 | 0.0 | 8.0 | 0.00 | 0.00 | 0.00 | 84 | 1024.1 |
| 20260831124305 | 23 | 0 | 0.0 | 8.0 | 0.00 | 0.00 | 0.00 | 84 | 1024.1 |
| 20260831123806 | 23 | 0 | 0.0 | 8.0 | 0.00 | 0.00 | 0.00 | 84 | 1024.0 |
| 20260831123304 | 23 | 0 | 0.0 | 8.0 | 0.00 | 0.00 | 0.00 | 84 | 1024.0 |
| 20260831122809 | 23 | 0 | 0.0 | 8.0 | 0.00 | 0.00 | 0.00 | 83 | 1024.1 |
| 20260831122306 | 23 | 295 | 1.6 | 8.0 | 0.00 | 0.00 | 0.00 | 84 | 1024.0 |
| 20260831121504 | 23 | 0 | 0.0 | 8.0 | 0.00 | 0.00 | 0.00 | 84 | 1024.0 |
| 20260831121004 | 23 | 0 | 0.0 | 8.0 | 0.00 | 0.00 | 0.00 | 84 | 1023.9 |
| 20260831120504 | 22 | 0 | 0.0 | 4.8 | 0.00 | 0.00 | 0.00 | 85 | 1023.8 |
| 20260831120006 | 22 | 0 | 0.0 | 16.1 | 0.00 | 0.00 | 0.00 | 86 | 1023.9 |
| 20260831115504 | 22 | 0 | 0.0 | 16.1 | 0.00 | 0.00 | 0.00 | 87 | 1023.9 |
| 20260831115004 | 22 | 0 | 0.0 | 4.8 | 0.00 | 0.00 | 0.00 | 88 | 1023.9 |
| 20260831114421 | 22 | 0 | 0.0 | 6.4 | 0.00 | 0.00 | 0.00 | 89 | 1023.9 |
| 20260831113922 | 22 | 0 | 0.0 | 6.4 | 0.00 | 0.00 | 0.00 | 88 | 1024.0 |
| 20260831113425 | 22 | 0 | 0.0 | 4.8 | 0.00 | 0.00 | 0.00 | 87 | 1023.9 |
| 20260831112921 | 22 | 0 | 0.0 | 1.6 | 0.00 | 0.00 | 0.00 | 87 | 1023.9 |
| 20260831112421 | 22 | 0 | 0.0 | 1.6 | 0.00 | 0.00 | 0.00 | 86 | 1023.9 |
| 20260831111924 | 22 | 0 | 0.0 | 4.8 | 0.00 | 0.00 | 0.00 | 86 | 1023.8 |
| 20260831111424 | 22 | 0 | 0.0 | 8.0 | 0.00 | 0.00 | 0.00 | 85 | 1023.8 |
| 20260831110921 | 22 | 0 | 0.0 | 8.0 | 0.00 | 0.00 | 0.00 | 85 | 1023.7 |
| 20260831110421 | 22 | 0 | 0.0 | 6.4 | 0.00 | 0.00 | 0.00 | 86 | 1023.7 |
| 20260831105931 | 22 | 0 | 0.0 | 14.5 | 0.00 | 0.00 | 0.00 | 85 | 1023.5 |
| 20260831105422 | 22 | 300 | 1.6 | 14.5 | 0.00 | 0.00 | 0.00 | 85 | 1023.6 |
| 20260831104922 | 22 | 0 | 0.0 | 6.4 | 0.00 | 0.00 | 0.00 | 85 | 1023.5 |
| 20260831104424 | 22 | 0 | 0.0 | 6.4 | 0.00 | 0.00 | 0.00 | 85 | 1023.5 |
| 20260831103921 | 22 | 0 | 0.0 | 6.4 | 0.00 | 0.00 | 0.00 | 85 | 1023.5 |
| 20260831103423 | 22 | 0 | 0.0 | 6.4 | 0.00 | 0.00 | 0.00 | 85 | 1023.5 |
| 20260831102922 | 22 | 0 | 0.0 | 8.0 | 0.00 | 0.00 | 0.00 | 85 | 1023.5 |
| 20260831102421 | 22 | 0 | 0.0 | 8.0 | 0.00 | 0.00 | 0.00 | 85 | 1023.5 |
| 20260831101921 | 22 | 0 | 0.0 | 4.8 | 0.00 | 0.00 | 0.00 | 86 | 1023.4 |
| 20260831101421 | 22 | 0 | 0.0 | 4.8 | 0.00 | 0.00 | 0.00 | 87 | 1023.3 |
| 20260831100924 | 21 | 0 | 0.0 | 3.2 | 0.00 | 0.00 | 0.00 | 87 | 1023.3 |
| 20260831100421 | 21 | 0 | 0.0 | 4.8 | 0.00 | 0.00 | 0.00 | 88 | 1023.3 |
| 20260831095922 | 21 | 0 | 0.0 | 4.8 | 0.00 | 0.00 | 0.00 | 89 | 1023.3 |
| 20260831095422 | 21 | 0 | 0.0 | 3.2 | 0.00 | 0.00 | 0.00 | 90 | 1023.2 |
| 20260831094926 | 21 | 0 | 0.0 | 3.2 | 0.00 | 0.00 | 0.00 | 90 | 1023.2 |
| 20260831094421 | 22 | 0 | 0.0 | 3.2 | 0.00 | 0.00 | 0.00 | 88 | 1023.2 |
| 20260831093921 | 22 | 0 | 0.0 | 3.2 | 0.00 | 0.00 | 0.00 | 85 | 1023.2 |
| 20260831093422 | 22 | 0 | 0.0 | 4.8 | 0.00 | 0.00 | 0.00 | 83 | 1023.2 |
| 20260831092921 | 22 | 0 | 0.0 | 4.8 | 0.00 | 0.00 | 0.00 | 83 | 1023.1 |
| 20260831092423 | 22 | 0 | 0.0 | 4.8 | 0.00 | 0.00 | 0.00 | 84 | 1023.1 |
| 20260831091921 | 22 | 0 | 0.0 | 4.8 | 0.00 | 0.00 | 0.00 | 84 | 1023.1 |
| 20260831091421 | 22 | 0 | 0.0 | 6.4 | 0.00 | 0.00 | 0.00 | 85 | 1023.1 |
| 20260831090921 | 22 | 0 | 0.0 | 6.4 | 0.00 | 0.00 | 0.00 | 85 | 1023.1 |
| 20260831090423 | 22 | 0 | 0.0 | 6.4 | 0.00 | 0.00 | 0.00 | 85 | 1023.1 |
| 20260831085922 | 22 | 0 | 0.0 | 11.3 | 0.00 | 0.00 | 0.00 | 86 | 1023.1 |
| 20260831085421 | 22 | 0 | 0.0 | 11.3 | 0.00 | 0.00 | 0.00 | 86 | 1023.2 |
| 20260831084921 | 22 | 0 | 0.0 | 3.2 | 0.00 | 0.00 | 0.00 | 86 | 1023.3 |
| 20260831084421 | 22 | 0 | 0.0 | 4.8 | 0.00 | 0.00 | 0.00 | 86 | 1023.2 |
| 20260831083921 | 22 | 0 | 0.0 | 4.8 | 0.00 | 0.00 | 0.00 | 86 | 1023.2 |
| 20260831083421 | 22 | 0 | 0.0 | 6.4 | 0.00 | 0.00 | 0.00 | 86 | 1023.2 |
| 20260831082921 | 22 | 0 | 0.0 | 6.4 | 0.00 | 0.00 | 0.00 | 86 | 1023.2 |
| 20260831082422 | 22 | 0 | 0.0 | 4.8 | 0.00 | 0.00 | 0.00 | 86 | 1023.2 |
| 20260831081924 | 22 | 0 | 0.0 | 6.4 | 0.00 | 0.00 | 0.00 | 86 | 1023.2 |
| 20260831081421 | 22 | 0 | 0.0 | 6.4 | 0.00 | 0.00 | 0.00 | 86 | 1023.2 |
| 20260831080921 | 22 | 0 | 0.0 | 3.2 | 0.00 | 0.00 | 0.00 | 86 | 1023.2 |
| 20260831080421 | 22 | 0 | 0.0 | 4.8 | 0.00 | 0.00 | 0.00 | 86 | 1023.2 |
| 20260831075922 | 22 | 0 | 0.0 | 6.4 | 0.00 | 0.00 | 0.00 | 87 | 1023.2 |
| 20260831075421 | 22 | 0 | 0.0 | 8.0 | 0.00 | 0.00 | 0.00 | 87 | 1023.1 |
| 20260831074923 | 22 | 0 | 0.0 | 17.7 | 0.00 | 0.00 | 0.00 | 87 | 1023.1 |
| 20260831074421 | 22 | 308 | 3.2 | 17.7 | 0.00 | 0.00 | 0.00 | 87 | 1023.1 |
| 20260831073921 | 22 | 306 | 4.8 | 14.5 | 0.00 | 0.00 | 0.00 | 88 | 1023.1 |
| 20260831073421 | 22 | 306 | 6.4 | 14.5 | 0.00 | 0.00 | 0.00 | 88 | 1023.1 |
| 20260831072921 | 22 | 304 | 6.4 | 12.9 | 0.00 | 0.00 | 0.00 | 88 | 1023.1 |
| 20260831072421 | 22 | 304 | 4.8 | 12.9 | 0.00 | 0.00 | 0.00 | 88 | 1023.1 |
| 20260831071921 | 22 | 303 | 3.2 | 12.9 | 0.00 | 0.00 | 0.00 | 88 | 1023.2 |
| 20260831071421 | 22 | 303 | 4.8 | 11.3 | 0.00 | 0.00 | 0.00 | 87 | 1023.2 |
| 20260831070921 | 22 | 303 | 4.8 | 11.3 | 0.00 | 0.00 | 0.00 | 87 | 1023.2 |
| 20260831070422 | 22 | 303 | 3.2 | 14.5 | 0.00 | 0.00 | 0.00 | 87 | 1023.2 |
| 20260831065922 | 22 | 303 | 4.8 | 14.5 | 0.00 | 0.00 | 0.00 | 87 | 1023.2 |
| 20260831065421 | 22 | 302 | 4.8 | 14.5 | 0.00 | 0.00 | 0.00 | 87 | 1023.2 |
| 20260831064923 | 22 | 302 | 4.8 | 14.5 | 0.00 | 0.00 | 0.00 | 87 | 1023.2 |
| 20260831064421 | 22 | 302 | 6.4 | 17.7 | 0.00 | 0.00 | 0.00 | 87 | 1023.3 |
| 20260831063922 | 22 | 302 | 8.0 | 17.7 | 0.00 | 0.00 | 0.00 | 86 | 1023.4 |
| 20260831063421 | 22 | 297 | 8.0 | 16.1 | 0.00 | 0.00 | 0.00 | 87 | 1023.4 |
| 20260831062930 | 22 | 295 | 8.0 | 16.1 | 0.00 | 0.00 | 0.00 | 86 | 1023.4 |
| 20260831062421 | 22 | 294 | 6.4 | 14.5 | 0.00 | 0.00 | 0.00 | 87 | 1023.5 |
| 20260831061921 | 22 | 288 | 8.0 | 14.5 | 0.00 | 0.00 | 0.00 | 87 | 1023.5 |
| 20260831061421 | 22 | 282 | 8.0 | 14.5 | 0.00 | 0.00 | 0.00 | 87 | 1023.6 |
| 20260831060921 | 22 | 280 | 4.8 | 14.5 | 0.00 | 0.00 | 0.00 | 88 | 1023.6 |
| 20260831060421 | 22 | 277 | 4.8 | 16.1 | 0.00 | 0.00 | 0.00 | 88 | 1023.6 |
| 20260831055922 | 22 | 277 | 4.8 | 16.1 | 0.00 | 0.00 | 0.00 | 88 | 1023.6 |
| 20260831055422 | 22 | 268 | 6.4 | 14.5 | 0.00 | 0.00 | 0.00 | 88 | 1023.7 |
| 20260831054922 | 22 | 267 | 6.4 | 14.5 | 0.00 | 0.00 | 0.00 | 89 | 1023.8 |
| 20260831054421 | 22 | 262 | 8.0 | 12.9 | 0.00 | 0.00 | 0.00 | 89 | 1023.8 |
| 20260831053921 | 22 | 254 | 4.8 | 11.3 | 0.00 | 0.00 | 0.00 | 89 | 1023.8 |
| 20260831053421 | 22 | 250 | 3.2 | 8.0 | 0.00 | 0.00 | 0.00 | 89 | 1023.8 |
| 20260831052921 | 22 | 249 | 1.6 | 8.0 | 0.00 | 0.00 | 0.00 | 89 | 1023.8 |
| 20260831052421 | 22 | 248 | 1.6 | 8.0 | 0.00 | 0.00 | 0.00 | 89 | 1023.8 |
| 20260831051921 | 22 | 0 | 0.0 | 8.0 | 0.00 | 0.00 | 0.00 | 89 | 1023.9 |
| 20260831051421 | 22 | 0 | 0.0 | 8.0 | 0.00 | 0.00 | 0.00 | 89 | 1023.9 |
| 20260831050921 | 22 | 0 | 0.0 | 6.4 | 0.00 | 0.00 | 0.00 | 89 | 1024.0 |
| 20260831050423 | 22 | 0 | 0.0 | 6.4 | 0.00 | 0.00 | 0.00 | 88 | 1023.9 |
| 20260831045921 | 22 | 0 | 0.0 | 4.8 | 0.00 | 0.00 | 0.00 | 88 | 1023.9 |
| 20260831045421 | 22 | 0 | 0.0 | 6.4 | 0.00 | 0.00 | 0.00 | 88 | 1023.9 |
| 20260831044922 | 22 | 0 | 0.0 | 6.4 | 0.00 | 0.00 | 0.00 | 88 | 1023.9 |
| 20260831044421 | 22 | 0 | 0.0 | 6.4 | 0.00 | 0.00 | 0.00 | 88 | 1024.0 |
| 20260831043921 | 22 | 0 | 0.0 | 3.2 | 0.00 | 0.00 | 0.00 | 88 | 1023.9 |
| 20260831043421 | 22 | 0 | 0.0 | 8.0 | 0.00 | 0.00 | 0.00 | 88 | 1024.0 |
| 20260831042927 | 22 | 0 | 0.0 | 8.0 | 0.00 | 0.00 | 0.00 | 88 | 1024.0 |
| 20260831042421 | 22 | 0 | 0.0 | 8.0 | 0.00 | 0.00 | 0.00 | 88 | 1024.0 |
| 20260831041923 | 22 | 0 | 0.0 | 8.0 | 0.00 | 0.00 | 0.00 | 89 | 1024.0 |
| 20260831041421 | 22 | 0 | 0.0 | 9.7 | 0.00 | 0.00 | 0.00 | 89 | 1024.1 |
| 20260831041001 | 22 | 0 | 0.0 | 9.7 | 0.00 | 0.00 | 0.00 | 88 | 1024.2 |
| 20260831040920 | 22 | 0 | 0.0 | 9.7 | 0.00 | 0.00 | 0.00 | 88 | 1024.2 |
| 20260831040423 | 22 | 0 | 0.0 | 8.0 | 0.00 | 0.00 | 0.00 | 88 | 1024.2 |
| 20260831035921 | 22 | 0 | 0.0 | 4.8 | 0.00 | 0.00 | 0.00 | 87 | 1024.3 |
| 20260831035421 | 22 | 0 | 0.0 | 4.8 | 0.00 | 0.00 | 0.00 | 87 | 1024.3 |
| 20260831034922 | 23 | 0 | 0.0 | 3.2 | 0.00 | 0.00 | 0.00 | 86 | 1024.3 |
| 20260831034421 | 23 | 0 | 0.0 | 3.2 | 0.00 | 0.00 | 0.00 | 84 | 1024.3 |
| 20260831033921 | 23 | 0 | 0.0 | 3.2 | 0.00 | 0.00 | 0.00 | 84 | 1024.3 |
| 20260831033430 | 23 | 0 | 0.0 | 3.2 | 0.00 | 0.00 | 0.00 | 84 | 1024.2 |
| 20260831032923 | 23 | 0 | 0.0 | 8.0 | 0.00 | 0.00 | 0.00 | 84 | 1024.2 |
| 20260831032421 | 23 | 0 | 0.0 | 8.0 | 0.00 | 0.00 | 0.00 | 84 | 1024.2 |
| 20260831031921 | 22 | 208 | 1.6 | 8.0 | 0.00 | 0.00 | 0.00 | 85 | 1024.2 |
| 20260831031421 | 22 | 0 | 0.0 | 9.7 | 0.00 | 0.00 | 0.00 | 85 | 1024.3 |
| 20260831030921 | 22 | 0 | 0.0 | 9.7 | 0.00 | 0.00 | 0.00 | 85 | 1024.3 |
| 20260831030421 | 22 | 0 | 0.0 | 3.2 | 0.00 | 0.00 | 0.00 | 85 | 1024.3 |
| 20260831025922 | 22 | 0 | 0.0 | 6.4 | 0.00 | 0.00 | 0.00 | 85 | 1024.4 |
| 20260831025421 | 22 | 0 | 0.0 | 6.4 | 0.00 | 0.00 | 0.00 | 85 | 1024.4 |
| 20260831024920 | 22 | 0 | 0.0 | 3.2 | 0.00 | 0.00 | 0.00 | 85 | 1024.5 |
| 20260831024421 | 22 | 0 | 0.0 | 1.6 | 0.00 | 0.00 | 0.00 | 85 | 1024.6 |
| 20260831023924 | 22 | 0 | 0.0 | 4.8 | 0.00 | 0.00 | 0.00 | 84 | 1024.6 |
| 20260831023424 | 22 | 0 | 0.0 | 4.8 | 0.00 | 0.00 | 0.00 | 85 | 1024.7 |
| 20260831022922 | 22 | 0 | 0.0 | 3.2 | 0.00 | 0.00 | 0.00 | 84 | 1024.7 |
| 20260831022421 | 23 | 0 | 0.0 | 1.6 | 0.00 | 0.00 | 0.00 | 84 | 1024.7 |
| 20260831021921 | 23 | 0 | 0.0 | 9.7 | 0.00 | 0.00 | 0.00 | 84 | 1024.6 |
| 20260831021421 | 23 | 0 | 0.0 | 9.7 | 0.00 | 0.00 | 0.00 | 84 | 1024.5 |
| 20260831020921 | 23 | 0 | 0.0 | 9.7 | 0.00 | 0.00 | 0.00 | 84 | 1024.5 |
| 20260831020422 | 23 | 0 | 0.0 | 8.0 | 0.00 | 0.00 | 0.00 | 84 | 1024.4 |
| 20260831015921 | 23 | 0 | 0.0 | 8.0 | 0.00 | 0.00 | 0.00 | 84 | 1024.5 |
| 20260831015421 | 23 | 0 | 0.0 | 8.0 | 0.00 | 0.00 | 0.00 | 84 | 1024.6 |
| 20260831014921 | 23 | 0 | 0.0 | 8.0 | 0.00 | 0.00 | 0.00 | 84 | 1024.5 |
| 20260831014421 | 23 | 0 | 0.0 | 12.9 | 0.00 | 0.00 | 0.00 | 83 | 1024.5 |
| 20260831013921 | 23 | 194 | 1.6 | 12.9 | 0.00 | 0.00 | 0.00 | 83 | 1024.4 |
| 20260831013421 | 23 | 194 | 1.6 | 9.7 | 0.00 | 0.00 | 0.00 | 83 | 1024.3 |
| 20260831012921 | 23 | 193 | 3.2 | 11.3 | 0.00 | 0.00 | 0.00 | 83 | 1024.3 |
| 20260831012421 | 23 | 193 | 1.6 | 11.3 | 0.00 | 0.00 | 0.00 | 82 | 1024.3 |
| 20260831011923 | 23 | 194 | 3.2 | 11.3 | 0.00 | 0.00 | 0.00 | 82 | 1024.2 |
| 20260831011421 | 23 | 194 | 1.6 | 11.3 | 0.00 | 0.00 | 0.00 | 82 | 1024.1 |
| 20260831010921 | 23 | 194 | 1.6 | 11.3 | 0.00 | 0.00 | 0.00 | 82 | 1024.1 |
| 20260831010420 | 23 | 0 | 0.0 | 11.3 | 0.00 | 0.00 | 0.00 | 82 | 1024.1 |